Location: Saratoga Springs
(43.0831°N, 73.7850°W)
Time: 12:50:11
(UTC-04:00)

Transit 4A - Pass Details

Date: 25 April 2024
Orbit: 871 x 971 km, 66.8° (Epoch: 20 May)

Event Time Altitude Azimuth Distance (km) Brightness Sun altitude
Rises 20:41:47 0° 331° (NNW) 3,468 12.0 -9.4°
Reaches altitude 10° 20:44:19 10° 336° (NNW) 2,528 11.1 -9.8°
Maximum altitude 20:50:04 56° 55° (NE) 1,033 8.0 -10.7°
Enters shadow 20:54:56 15° 131° (SE) 2,223 9.2 -11.5°
